This is the latest recevied weather packets stored in our database for station/object K1BWE-1. If no packets are shown the sender has not sent any weather packets the latest 10 day(s).
| Time | Temp. | Humidity | Pressure | Rain* | Wind** | Luminosity | Snow |
|---|---|---|---|---|---|---|---|
| 1777516016 | 22.22° C | 17% | 1014.7 hPa | 0 mm | - | 0 W/m² | - |
| 1777515714 | 22.78° C | 17% | 1014.7 hPa | 0 mm | - | 0 W/m² | - |
| 1777515410 | 22.78° C | 16% | 1014.4 hPa | 0 mm | - | 0 W/m² | - |
| 1777515107 | 23.33° C | 16% | 1014.4 hPa | 0 mm | - | 0 W/m² | - |
| 1777514803 | 23.33° C | 16% | 1014.5 hPa | 0 mm | - | 0 W/m² | - |
| 1777514501 | 23.33° C | 16% | 1014.3 hPa | 0 mm | - | 1 W/m² | - |
| 1777514198 | 23.89° C | 15% | 1014.4 hPa | 0 mm | - | 3 W/m² | - |
| 1777513894 | 23.89° C | 15% | 1014.4 hPa | 0 mm | - | 5 W/m² | - |
| 1777513591 | 23.89° C | 15% | 1014.4 hPa | 0 mm | - | 4 W/m² | - |
| 1777512985 | 23.89° C | 15% | 1014 hPa | 0 mm | - | 12 W/m² | - |
| 1777512378 | 24.44° C | 14% | 1014.2 hPa | 0 mm | - | 24 W/m² | - |
| 1777512075 | 24.44° C | 15% | 1014.1 hPa | 0 mm | - | 24 W/m² | - |
| 1777511773 | 25° C | 14% | 1014 hPa | 0 mm | - | 23 W/m² | - |
| 1777511469 | 25° C | 14% | 1014.2 hPa | 0 mm | - | 26 W/m² | - |
| 1777511166 | 25° C | 14% | 1014.1 hPa | 0 mm | - | 43 W/m² | - |
| 1777510862 | 25° C | 14% | 1014.8 hPa | 0 mm | - | 48 W/m² | - |
| 1777510559 | 25° C | 15% | 1014.3 hPa | 0 mm | - | 61 W/m² | - |
| 1777510255 | 25° C | 14% | 1014.7 hPa | 0 mm | - | 55 W/m² | - |
| 1777509344 | 25° C | 15% | 1014.7 hPa | 0 mm | - | 75 W/m² | - |
| 1777509042 | 25° C | 15% | 1014.4 hPa | 0 mm | - | 102 W/m² | - |
| 1777508739 | 25° C | 14% | 1014.4 hPa | 0 mm | - | 65 W/m² | - |
| 1777508133 | 25° C | 14% | 1014.2 hPa | 0 mm | - | 81 W/m² | - |
| 1777507527 | 25.56° C | 15% | 1014.7 hPa | 0 mm | - | 99 W/m² | - |
| 1777505706 | 25.56° C | 15% | 1014.9 hPa | 0 mm | - | 128 W/m² | - |
| 1777503279 | 25.56° C | 13% | 1014.8 hPa | 0 mm | - | 162 W/m² | - |
* Rain latest hour (hover to see other rain measurements)
** Current wind speed in m/s (hover to see current wind gust speed)